TimeEDT,TemperatureF,Dew PointF,Humidity,Sea Level PressureIn,VisibilityMPH,Wind Direction,Wind SpeedMPH,Gust SpeedMPH,PrecipitationIn,Events,Conditions,WindDirDegrees,DateUTC
12:53 AM,55.9,33.1,42,29.92,10.0,West,8.1,-,N/A,,Clear,270,2011-10-16 04:53:00
1:53 AM,57.2,33.8,41,29.93,10.0,West,12.7,21.9,N/A,,Clear,270,2011-10-16 05:53:00
2:53 AM,55.9,34.0,44,29.94,10.0,West,12.7,-,N/A,,Clear,270,2011-10-16 06:53:00
3:53 AM,55.9,34.0,44,29.94,10.0,WSW,9.2,20.7,N/A,,Clear,250,2011-10-16 07:53:00
4:53 AM,52.0,36.0,54,29.95,10.0,WSW,6.9,-,N/A,,Clear,250,2011-10-16 08:53:00
5:53 AM,50.0,36.0,59,29.97,10.0,SSW,4.6,-,N/A,,Clear,200,2011-10-16 09:53:00
6:53 AM,51.1,36.0,56,29.98,10.0,South,4.6,-,N/A,,Clear,190,2011-10-16 10:53:00
7:53 AM,53.1,36.0,52,29.99,10.0,SSW,4.6,-,N/A,,Clear,200,2011-10-16 11:53:00
8:53 AM,57.0,37.0,47,30.00,10.0,SSW,8.1,-,N/A,,Clear,210,2011-10-16 12:53:00
9:53 AM,60.1,39.0,46,29.99,10.0,SSW,6.9,-,N/A,,Clear,210,2011-10-16 13:53:00
10:53 AM,63.0,39.0,41,29.97,10.0,SSW,10.4,-,N/A,,Clear,200,2011-10-16 14:53:00
11:53 AM,64.9,39.0,39,29.96,10.0,South,12.7,17.3,N/A,,Clear,190,2011-10-16 15:53:00
12:53 PM,68.0,39.0,35,29.94,10.0,South,9.2,20.7,N/A,,Scattered Clouds,190,2011-10-16 16:53:00
1:53 PM,69.1,39.9,35,29.88,10.0,South,9.2,20.7,N/A,,Partly Cloudy,180,2011-10-16 17:53:00
2:53 PM,70.0,42.1,36,29.84,10.0,South,10.4,18.4,N/A,,Mostly Cloudy,180,2011-10-16 18:53:00
3:53 PM,70.0,39.9,33,29.80,10.0,South,16.1,24.2,N/A,,Scattered Clouds,190,2011-10-16 19:53:00
4:53 PM,69.1,41.0,36,29.77,10.0,South,9.2,16.1,N/A,,Mostly Cloudy,190,2011-10-16 20:53:00
5:53 PM,68.0,43.0,40,29.73,10.0,South,9.2,-,N/A,,Scattered Clouds,190,2011-10-16 21:53:00
6:53 PM,66.0,44.1,45,29.71,10.0,South,11.5,-,N/A,,Clear,170,2011-10-16 22:53:00
7:53 PM,64.0,45.0,50,29.71,10.0,South,6.9,-,N/A,,Clear,190,2011-10-16 23:53:00
8:53 PM,63.0,46.0,54,29.70,10.0,South,5.8,-,N/A,,Partly Cloudy,190,2011-10-17 00:53:00
9:53 PM,62.1,46.0,56,29.71,10.0,South,4.6,-,N/A,,Partly Cloudy,190,2011-10-17 01:53:00
10:53 PM,63.0,46.0,54,29.68,10.0,South,5.8,-,N/A,,Clear,190,2011-10-17 02:53:00
11:53 PM,63.0,45.0,52,29.66,10.0,SSE,5.8,-,N/A,,Clear,160,2011-10-17 03:53:00